This is the latest recevied weather packets stored in our database for station/object W4KAB. If no packets are shown the sender has not sent any weather packets the latest 10 day(s).
| Time | Temp. | Humidity | Pressure | Rain* | Wind** | Luminosity | Snow |
|---|---|---|---|---|---|---|---|
| 1777956166 | 16.67° C | 53% | 1015.5 hPa | 0 mm | - | 0 W/m² | - |
| 1777955862 | 17.22° C | 55% | 1015.6 hPa | 0 mm | - | 0 W/m² | - |
| 1777955559 | 17.22° C | 55% | 1015.6 hPa | 0 mm | - | 0 W/m² | - |
| 1777955255 | 18.33° C | 54% | 1015.4 hPa | 0 mm | - | 0 W/m² | - |
| 1777954952 | 19.44° C | 50% | 1015.5 hPa | 0 mm | - | 0 W/m² | - |
| 1777954649 | 19.44° C | 45% | 1015.4 hPa | 0 mm | - | 0 W/m² | - |
| 1777954346 | 19.44° C | 45% | 1015.6 hPa | 0 mm | - | 0 W/m² | - |
| 1777954043 | 20° C | 45% | 1015.6 hPa | 0 mm | - | 0 W/m² | - |
| 1777953740 | 19.44° C | 45% | 1015.6 hPa | 0 mm | - | 0 W/m² | - |
| 1777953438 | 20° C | 45% | 1015.5 hPa | 0 mm | - | 0 W/m² | - |
| 1777953133 | 20° C | 45% | 1015.7 hPa | 0 mm | - | 0 W/m² | - |
| 1777952830 | 20° C | 45% | 1015.7 hPa | 0 mm | - | 0 W/m² | - |
| 1777952527 | 19.44° C | 47% | 1015.6 hPa | 0 mm | - | 0 W/m² | - |
| 1777952223 | 19.44° C | 46% | 1015.5 hPa | 0 mm | - | 0 W/m² | - |
| 1777951922 | 19.44° C | 45% | 1015.7 hPa | 0 mm | - | 0 W/m² | - |
| 1777951619 | 19.44° C | 46% | 1015.7 hPa | 0 mm | - | 0 W/m² | - |
| 1777951315 | 19.44° C | 47% | 1016.1 hPa | 0 mm | - | 0 W/m² | - |
| 1777951013 | 20° C | 45% | 1015.9 hPa | 0 mm | - | 0 W/m² | - |
| 1777950709 | 20° C | 45% | 1015.9 hPa | 0 mm | - | 0 W/m² | - |
| 1777950406 | 20° C | 45% | 1015.8 hPa | 0 mm | - | 0 W/m² | - |
| 1777950101 | 20° C | 45% | 1016.1 hPa | 0 mm | - | 0 W/m² | - |
| 1777949798 | 20° C | 45% | 1016 hPa | 0 mm | - | 0 W/m² | - |
| 1777949496 | 19.44° C | 46% | 1016 hPa | 0 mm | - | 0 W/m² | - |
| 1777949194 | 19.44° C | 46% | 1016.2 hPa | 0 mm | - | 0 W/m² | - |
| 1777948891 | 19.44° C | 46% | 1016.1 hPa | 0 mm | - | 0 W/m² | - |
* Rain latest hour (hover to see other rain measurements)
** Current wind speed in m/s (hover to see current wind gust speed)